Regional Weather Roundup
Issued by NWS

Home | Current Version | Previous Version | Graphics & Text | Print | Product List | Glossary On
Versions: 1 2 3 4 5 6 7 8 9 10 11 12 13 14 15 16 17 18 19 20 21 22 23 24 25 26 27 28 29 30 31 32 33 34 35 36 37 38 39 40 41 42 43 44 45 46 47 48 49 50
000
ASUS45 KCYS 060910
RWRWY

WYOMING REGIONAL WEATHER ROUNDUP
NATIONAL WEATHER SERVICE CHEYENNE WY
300 AM MDT FRI MAY 06 2016

NOTE:  "FAIR" INDICATES FEW OR NO CLOUDS BELOW 12,000 FEET
WITH NO SIGNIFICANT WEATHER AND/OR OBSTRUCTIONS TO VISIBILITY.

WYZ001-061000-
YELLOWSTONE NATIONAL PARK

CITY           SKY/WX    TMP DP  RH WIND       PRES   REMARKS
LK YELLOWSTONE   N/A     36  30  79 NW3       30.11F
W YELLOWSTONE  NOT AVBL

$$
WYZ002>013-054>058-071-098>099-061000-
NORTHERN WYOMING

CITY           SKY/WX    TMP DP  RH WIND       PRES   REMARKS
JACKSON        FAIR      46  34  61 SW7       30.02R
CODY           FAIR      61  34  36 SW8       29.95R
GREYBULL       FAIR      59  33  37 VRB3      29.88S
WORLAND        FAIR      56  43  61 CALM      29.89S
SHERIDAN       FAIR      50  40  68 CALM      29.89F
BUFFALO        FAIR      59  33  37 W6        29.95F
GILLETTE       FAIR      51  39  63 SE3       29.90F
HULETT         FAIR      61  34  36 CALM      29.92F
NEWCASTLE      FAIR      59  32  36 CALM      29.94S

$$
WYZ014>020-022>026-101>103-061000-
CENTRAL WYOMING

CITY           SKY/WX    TMP DP  RH WIND       PRES   REMARKS
BIG PINEY      MOCLDY    44  30  57 E7        30.05S
PINEDALE       FAIR      43  32  65 N3        30.05S
DUBOIS         FAIR      43  32  65 W10       30.07S
LANDER         FAIR      55  30  38 W10       29.94F
RIVERTON       FAIR      52  42  69 NW9       29.96S
CASPER         FAIR      47  40  76 NW6       29.97S
DOUGLAS        FAIR      50  40  68 S3        29.96F

$$
WYZ021-027>030-104>119-061000-
SOUTHERN WYOMING

CITY           SKY/WX    TMP DP  RH WIND       PRES   REMARKS
EVANSTON       FAIR      54  34  46 E10       30.00F
KEMMERER       LGT RAIN  54  36  50 SE13G28   30.08R
FORT BRIDGER   LGT RAIN  55  39  54 E10       30.04F
ROCK SPRINGS   MOCLDY    52  30  43 W8        30.02S
DIXON          FAIR      54  30  39 E9        30.01S
RAWLINS        FAIR      49  33  54 NE3       30.03F
SARATOGA       FAIR      52  32  46 S12       30.04F
LARAMIE        FAIR      43  37  79 SW8       30.07F
CHEYENNE       FAIR      52  39  61 S6        30.03F
TORRINGTON     FAIR      53  42  66 E5        29.93F
PINE BLUFFS    FAIR      45  41  87 SW5       30.01F

$$



USA.gov is the U.S. government's official web portal to all federal, state and local government web resources and services.